This is the latest recevied weather packets stored in our database for station/object KB3KAV. If no packets are shown the sender has not sent any weather packets the latest 10 day(s).
| Time | Temp. | Humidity | Pressure | Rain* | Wind** | Luminosity | Snow |
|---|---|---|---|---|---|---|---|
| 1777787385 | 5.56° C | 66% | 1041.8 hPa | 0 mm | - | 0 W/m² | - |
| 1777786785 | 5.56° C | 65% | 1042 hPa | 0 mm | - | 0 W/m² | - |
| 1777786185 | 5.56° C | 64% | 1042.1 hPa | 0 mm | - | 0 W/m² | - |
| 1777785584 | 5.56° C | 65% | 1042.1 hPa | 0 mm | - | 0 W/m² | - |
| 1777784983 | 6.11° C | 64% | 1042.2 hPa | 0 mm | - | 0 W/m² | - |
| 1777784383 | 6.11° C | 62% | 1042.3 hPa | 0 mm | - | 0 W/m² | - |
| 1777783783 | 6.11° C | 62% | 1042.3 hPa | 0 mm | - | 0 W/m² | - |
| 1777783177 | 6.11° C | 62% | 1042.2 hPa | 0 mm | - | 0 W/m² | - |
| 1777782575 | 6.11° C | 61% | 1042.2 hPa | 0 mm | - | 0 W/m² | - |
| 1777781974 | 6.67° C | 61% | 1042.3 hPa | 0 mm | - | 0 W/m² | - |
| 1777781374 | 6.67° C | 60% | 1042.5 hPa | 0 mm | - | 0 W/m² | - |
| 1777780769 | 6.67° C | 59% | 1042.4 hPa | 0 mm | - | 0 W/m² | - |
| 1777780169 | 6.67° C | 60% | 1042.5 hPa | 0 mm | - | 0 W/m² | - |
| 1777779569 | 6.67° C | 61% | 1042.5 hPa | 0 mm | - | 0 W/m² | - |
| 1777778965 | 6.67° C | 60% | 1042.4 hPa | 0 mm | - | 0 W/m² | - |
| 1777778360 | 6.67° C | 60% | 1042.3 hPa | 0 mm | - | 0 W/m² | - |
| 1777777760 | 7.22° C | 58% | 1042.6 hPa | 0 mm | - | 0 W/m² | - |
| 1777777159 | 7.22° C | 59% | 1042.3 hPa | 0 mm | - | 0 W/m² | - |
| 1777776560 | 7.22° C | 61% | 1042.3 hPa | 0 mm | - | 0 W/m² | - |
| 1777775959 | 7.22° C | 62% | 1042.4 hPa | 0 mm | - | 0 W/m² | - |
| 1777775359 | 6.67° C | 65% | 1042.5 hPa | 0 mm | - | 0 W/m² | - |
| 1777774756 | 6.67° C | 69% | 1042.3 hPa | 0 mm | - | 0 W/m² | - |
| 1777774155 | 7.22° C | 68% | 1042.5 hPa | 0 mm | - | 0 W/m² | - |
| 1777773555 | 7.22° C | 64% | 1042.3 hPa | 0 mm | - | 0 W/m² | - |
| 1777772954 | 7.78° C | 65% | 1042.2 hPa | 0 mm | - | 0 W/m² | - |
* Rain latest hour (hover to see other rain measurements)
** Current wind speed in m/s (hover to see current wind gust speed)